Flag for Brazil Weather past 2 weeks in Sorocaba, São Paulo, Brazil

Now
63 °F

Light rain. Fog.


Feels Like: 63 °F
Forecast: 60 / 68 °F
Wind: 6 mph from Southwest

Location: Campinas Aeroporto

Current Time: Jul 1, 2015 at 2:44:51 PM

Latest Report: Jul 1, 2015 at 2:00 PM


Visibility: 2 mi

Pressure: N/A

Humidity: 100%

Dew point: 63 °F

Location of SorocabaLocation

Historic Weather in Sorocaba — Graph

°F

Sorocaba temperature yesterday

Maximum temperature yesterday: 77 °F (at 1:00 PM)
Minimum temperature yesterday: 59 °F (at 5:00 AM)
Average temperature yesterday: 67 °F

Past Weeks' High & Low Weather Summary

 TemperatureHumidityPressure
High84 °F (Jun 18, 3:00 PM)100% (Jun 17, 6:00 AM)30.48 "Hg (Jun 17, 6:00 AM)
Low52 °F (Jun 27, 5:00 AM)31% (Jun 27, 4:00 PM)30.04 "Hg (Jun 18, 3:00 AM)
Average65 °F71%30.26 "Hg
* Reported Jun 16 2:00 PM — Jul 1 2:00 PM, Sorocaba, Weather by CustomWeather, © 2015

Note: Actual official high and low records may vary slightly from our data, if they occured in-between our weather recording intervals... More about our weather records

Advertising

Sorocaba weather history for previous 24 hours

 ConditionsComfort  
Time TempWeatherWind HumidityBarometerVisibility
2:00 PM
Wed, Jul 1
63 °FLight rain. Fog.6 mph100%N/A2 mi
1:00 PM64 °FFog.1 mph94%30.18 "Hg3 mi
12:00 PM64 °FPartly sunny.2 mph94%30.21 "Hg4 mi
11:00 AM64 °FPartly sunny.5 mph88%30.21 "Hg4 mi
10:00 AM63 °FLight rain. Broken clouds.5 mph94%30.21 "Hg3 mi
9:00 AM63 °FBroken clouds.5 mph94%30.21 "HgN/A
8:00 AM61 °FBroken clouds.1 mph94%30.18 "HgN/A
7:00 AM59 °FLight rain. Broken clouds.8 mph100%30.12 "HgN/A
6:00 AM61 °FLight rain. More clouds than sun.5 mph94%30.18 "HgN/A
5:00 AM63 °FPartly cloudy.8 mph77%30.15 "HgN/A
4:00 AM63 °FPassing clouds.6 mph77%30.15 "HgN/A
3:00 AM64 °FPassing clouds.9 mph78%30.12 "HgN/A
2:00 AM64 °FPassing clouds.10 mph78%30.12 "HgN/A
1:00 AM66 °FPassing clouds.8 mph68%30.09 "HgN/A
12:00 AM66 °FPassing clouds.8 mph73%30.09 "HgN/A
11:00 PM
Tue, Jun 30
68 °FPassing clouds.6 mph69%30.12 "HgN/A
10:00 PM66 °FClear.6 mph73%30.12 "Hg10 mi
9:00 PM68 °FClear.6 mph69%30.12 "Hg10 mi
8:00 PM68 °FClear.6 mph69%30.09 "Hg10 mi
7:00 PM70 °FPassing clouds.6 mph60%30.09 "HgN/A
6:00 PM72 °FPassing clouds.5 mph57%30.07 "HgN/A
5:00 PM73 °FPassing clouds.10 mph53%30.07 "HgN/A
4:00 PM75 °FPassing clouds.13 mph50%30.07 "HgN/A
3:00 PM75 °FPassing clouds.14 mph50%30.09 "HgN/A
2:00 PM75 °FPassing clouds.16 mph47%30.12 "HgN/A
Weather by CustomWeather, © 2015

See weather overviewHow to use our weather pages